(°C)
14°
14°
15°
15°
15°
15°
15°
(°C)
10°
11°
11°
11°
11°
11°
10°
ONO
ONO
ONO
ONO
ONO
ONO
ONO
(km/h)
18-20
18-21
19-22
20-23
20-23
19-22
20-22
(mm)
0
0
0
0
0
0
0
(%)
6
0
0
6
0
0
12

Sonnenhöhe

/ 18.7°
sun-icon
UV 1
07:55
18:45
Abnehmender Mond (233°)
21:39
12:27

METAR für Ioannina (LGIO)

Zeit Bedingungen Temperatur/
Taupunkt
Wind Sichtweite Wetter Wolken Druck Änderung Roh
VFR 14°C / 5°C 60º 7kt >10km - Few Clouds 3000ft 1023 - LGIO 250620Z 06007KT 9999 FEW030 14/05 Q1023
VFR 14°C / 6°C 70º 7kt Gust 17kt >10km - Few Clouds 3000ft 1023 - LGIO 250550Z 07007G17KT 9999 FEW030 14/06 Q1023
13°C / 5°C 90º variable 270º to 240º 5kt - 1023 - LGIO 250520Z AUTO 09005KT 270V240 //// // ////// 13/05 Q1023 RE//
11°C / 6°C variable 2kt - 1023 - LGIO 250450Z AUTO VRB02KT //// // ////// 11/06 Q1023 RE//
11°C / 6°C variable 2kt - 1023 - LGIO 250420Z AUTO VRB02KT //// // ////// 11/06 Q1023 RE//
12°C / 7°C 230º variable 200º to 270º 4kt - 1023 - LGIO 250350Z AUTO 23004KT 200V270 //// // ////// 12/07 Q1023 RE//
11°C / 7°C variable 3kt - 1022 - LGIO 250320Z AUTO VRB03KT //// // ////// 11/07 Q1022 RE//
11°C / 8°C 180º variable 170º to 280º 4kt - 1022 - LGIO 250250Z AUTO 18004KT 170V280 //// // ////// 11/08 Q1022 RE//
12°C / 8°C 30º 4kt - 1022 - LGIO 250220Z AUTO 03004KT //// // ////// 12/08 Q1022 RE//
11°C / 9°C variable 3kt - 1023 - LGIO 250150Z AUTO VRB03KT //// // ////// 11/09 Q1023 RE//
12°C / 9°C 250º variable 220º to 280º 5kt - 1023 - LGIO 250120Z AUTO 25005KT 220V280 //// // ////// 12/09 Q1023 RE//
12°C / 9°C variable 3kt - 1023 - LGIO 250050Z AUTO VRB03KT //// // ////// 12/09 Q1023 RE//
12°C / 9°C variable 2kt - 1023 - LGIO 250020Z AUTO VRB02KT //// // ////// 12/09 Q1023 RE//
12°C / 10°C variable 1kt - 1023 - LGIO 242350Z AUTO VRB01KT //// // ////// 12/10 Q1023 RE//
11°C / 10°C variable 1kt - 1023 - LGIO 242320Z AUTO VRB01KT //// // ////// 11/10 Q1023 RE//
12°C / 10°C variable 1kt - 1023 - LGIO 242250Z AUTO VRB01KT //// // ////// 12/10 Q1023 RE//
12°C / 10°C variable 1kt - 1024 - LGIO 242220Z AUTO VRB01KT //// // ////// 12/10 Q1024 RE//
12°C / 10°C variable 1kt - 1024 - LGIO 242150Z AUTO VRB01KT //// // ////// 12/10 Q1024 RE//
13°C / 10°C 230º variable 190º to 280º 5kt - 1024 - LGIO 242120Z AUTO 23005KT 190V280 //// // ////// 13/10 Q1024 RE//
13°C / 11°C variable 0kt - 1024 - LGIO 242050Z AUTO 00000KT //// // ////// 13/11 Q1024 RE//
14°C / 11°C variable 2kt - 1024 - LGIO 242020Z AUTO VRB02KT //// // ////// 14/11 Q1024 RE//
14°C / 12°C variable 2kt - 1023 - LGIO 241950Z AUTO VRB02KT //// // ////// 14/12 Q1023 RE//
14°C / 12°C variable 3kt - 1023 - LGIO 241920Z AUTO VRB03KT //// // ////// 14/12 Q1023 RE//
14°C / 12°C variable 1kt - 1023 - LGIO 241850Z AUTO VRB01KT //// // ////// 14/12 Q1023 RE//

VFR

14°C / 5°C

[Mehr]
Wind 60º 7kt
Sichtweite >10km
Wetter -
Wolken Few Clouds 3000ft
Druck 1023
Änderung -
Roh LGIO 250620Z 06007KT 9999 FEW030 14/05 Q1023

VFR

14°C / 6°C

[Mehr]
Wind 70º 7kt Gust 17kt
Sichtweite >10km
Wetter -
Wolken Few Clouds 3000ft
Druck 1023
Änderung -
Roh LGIO 250550Z 07007G17KT 9999 FEW030 14/06 Q1023

13°C / 5°C

[Mehr]
Wind 90º variable 270º to 240º 5kt
Sichtweite
Wetter -
Wolken
Druck 1023
Änderung -
Roh LGIO 250520Z AUTO 09005KT 270V240 //// // ////// 13/05 Q1023 RE//

11°C / 6°C

[Mehr]
Wind variable 2kt
Sichtweite
Wetter -
Wolken
Druck 1023
Änderung -
Roh LGIO 250450Z AUTO VRB02KT //// // ////// 11/06 Q1023 RE//

11°C / 6°C

[Mehr]
Wind variable 2kt
Sichtweite
Wetter -
Wolken
Druck 1023
Änderung -
Roh LGIO 250420Z AUTO VRB02KT //// // ////// 11/06 Q1023 RE//

12°C / 7°C

[Mehr]
Wind 230º variable 200º to 270º 4kt
Sichtweite
Wetter -
Wolken
Druck 1023
Änderung -
Roh LGIO 250350Z AUTO 23004KT 200V270 //// // ////// 12/07 Q1023 RE//

11°C / 7°C

[Mehr]
Wind variable 3kt
Sichtweite
Wetter -
Wolken
Druck 1022
Änderung -
Roh LGIO 250320Z AUTO VRB03KT //// // ////// 11/07 Q1022 RE//

11°C / 8°C

[Mehr]
Wind 180º variable 170º to 280º 4kt
Sichtweite
Wetter -
Wolken
Druck 1022
Änderung -
Roh LGIO 250250Z AUTO 18004KT 170V280 //// // ////// 11/08 Q1022 RE//

12°C / 8°C

[Mehr]
Wind 30º 4kt
Sichtweite
Wetter -
Wolken
Druck 1022
Änderung -
Roh LGIO 250220Z AUTO 03004KT //// // ////// 12/08 Q1022 RE//

11°C / 9°C

[Mehr]
Wind variable 3kt
Sichtweite
Wetter -
Wolken
Druck 1023
Änderung -
Roh LGIO 250150Z AUTO VRB03KT //// // ////// 11/09 Q1023 RE//

12°C / 9°C

[Mehr]
Wind 250º variable 220º to 280º 5kt
Sichtweite
Wetter -
Wolken
Druck 1023
Änderung -
Roh LGIO 250120Z AUTO 25005KT 220V280 //// // ////// 12/09 Q1023 RE//

12°C / 9°C

[Mehr]
Wind variable 3kt
Sichtweite
Wetter -
Wolken
Druck 1023
Änderung -
Roh LGIO 250050Z AUTO VRB03KT //// // ////// 12/09 Q1023 RE//

12°C / 9°C

[Mehr]
Wind variable 2kt
Sichtweite
Wetter -
Wolken
Druck 1023
Änderung -
Roh LGIO 250020Z AUTO VRB02KT //// // ////// 12/09 Q1023 RE//

12°C / 10°C

[Mehr]
Wind variable 1kt
Sichtweite
Wetter -
Wolken
Druck 1023
Änderung -
Roh LGIO 242350Z AUTO VRB01KT //// // ////// 12/10 Q1023 RE//

11°C / 10°C

[Mehr]
Wind variable 1kt
Sichtweite
Wetter -
Wolken
Druck 1023
Änderung -
Roh LGIO 242320Z AUTO VRB01KT //// // ////// 11/10 Q1023 RE//

12°C / 10°C

[Mehr]
Wind variable 1kt
Sichtweite
Wetter -
Wolken
Druck 1023
Änderung -
Roh LGIO 242250Z AUTO VRB01KT //// // ////// 12/10 Q1023 RE//

12°C / 10°C

[Mehr]
Wind variable 1kt
Sichtweite
Wetter -
Wolken
Druck 1024
Änderung -
Roh LGIO 242220Z AUTO VRB01KT //// // ////// 12/10 Q1024 RE//

12°C / 10°C

[Mehr]
Wind variable 1kt
Sichtweite
Wetter -
Wolken
Druck 1024
Änderung -
Roh LGIO 242150Z AUTO VRB01KT //// // ////// 12/10 Q1024 RE//

13°C / 10°C

[Mehr]
Wind 230º variable 190º to 280º 5kt
Sichtweite
Wetter -
Wolken
Druck 1024
Änderung -
Roh LGIO 242120Z AUTO 23005KT 190V280 //// // ////// 13/10 Q1024 RE//

13°C / 11°C

[Mehr]
Wind variable 0kt
Sichtweite
Wetter -
Wolken
Druck 1024
Änderung -
Roh LGIO 242050Z AUTO 00000KT //// // ////// 13/11 Q1024 RE//

14°C / 11°C

[Mehr]
Wind variable 2kt
Sichtweite
Wetter -
Wolken
Druck 1024
Änderung -
Roh LGIO 242020Z AUTO VRB02KT //// // ////// 14/11 Q1024 RE//

14°C / 12°C

[Mehr]
Wind variable 2kt
Sichtweite
Wetter -
Wolken
Druck 1023
Änderung -
Roh LGIO 241950Z AUTO VRB02KT //// // ////// 14/12 Q1023 RE//

14°C / 12°C

[Mehr]
Wind variable 3kt
Sichtweite
Wetter -
Wolken
Druck 1023
Änderung -
Roh LGIO 241920Z AUTO VRB03KT //// // ////// 14/12 Q1023 RE//

14°C / 12°C

[Mehr]
Wind variable 1kt
Sichtweite
Wetter -
Wolken
Druck 1023
Änderung -
Roh LGIO 241850Z AUTO VRB01KT //// // ////// 14/12 Q1023 RE//

TAF für Ioannina (LGIO)

From till


From till Wind variable 3kt. Visibility 10km or more. Few Clouds 1000ft. Broken Clouds 2000ft.
Becoming from till Wind variable 3kt. Visibility 10km or more. Few Clouds 800ft. Scattered Clouds 2500ft. Broken Clouds 8000ft.

Roh: TAF LGIO 250500Z 2506/2515 VRB03KT 9999 FEW010 BKN020 BECMG 2508/2510 FEW008 SCT025 BKN080

Aktuelle Satelliten- und Regenbilder für Ioannina, Griechenland

Die Standortmarkierung ist platziert auf Ioannina. [Mehr]

Das Echtzeit-Satellitenbild kombiniert sichtbares Licht während des Tages mit Infrarotstrahlung während der Nacht. Nachts ist das Bild nicht dunkel, da Infrarotstrahlung Temperaturunterschiede erkennen kann. Leider sind niedrige Wolken und Nebel nur schwer von den Bodentemperaturen zu unterscheiden und können daher nachts fast unsichtbar sein. Meteosat-Satellitenbilder für Europa werden alle 5 Minuten in Echtzeit aktualisiert. Die Bilder GOES-16 / GOES-17 (Nord- und Südamerika) und Himawari (Asien) werden alle 10 Minuten aktualisiert.

Niederschläge werden von Radar und Satelliten berechnet. Nachts sind die Niederschlagsberechnungen durch die Satelliten weniger genau als tagsüber. Orangene Kreuze markieren Stellen, an denen Blitze aufgenommen wurden (über Europa).

Copyright 2021 EUMETSAT / meteoblue. Blitzdaten zur Verfügung gestellt von nowcast.

Radar- und Niederschlags-Nowcast für Ioannina

Nieselregen
Leicht
Moderat
Stark
Sehr schwer
Hagel

Die Ortsmarkierung zeigt auf Ioannina. Diese Animation zeigt das Niederschlagsradar der letzten Stunde, sowie eine 1h Vorhersage. Nieselregen und leichter Schneefall können für das Radar unsichtbar sein. Die Niederschlagsintensität ist farbcodiert von Hellblau bis Orange.